Simultaneous Nadir Overpasses (SNOs) Predictions

Prediction of SNOs between LANDSAT-8 and METOP-B Satellite Orbit:

Table of predicted SNOs for the next 14.0 days since TLE Epoch: 8/14/2021
Index Date (LANDSAT-8) Time (LANDSAT-8) Lat,Lon (LANDSAT-8) SZA (LANDSAT-8 ) Date (METOP-B) Time (METOP-B) Lat,Lon (METOP-B) SZA (METOP-B ) Distance(km) Time Diff (sec)
1 08/15/2021 17:24:52 81.12, -41.18 69.32 08/15/2021 17:24:26 81.12, -41.10 69.32 1.29 26
2 08/15/2021 18:14:18 -81.14, 126.79 110.62 08/15/2021 18:15:05 -81.14, 126.80 110.60 0.31 47
3 08/18/2021 12:59:07 81.12, 25.27 70.24 08/18/2021 12:58:48 81.12, 25.21 70.22 1.26 19
4 08/18/2021 13:48:33 -81.14,-166.73 109.71 08/18/2021 13:49:27 -81.14,-166.87 109.70 2.54 54
5 08/21/2021 08:33:23 81.12, 91.70 71.17 08/21/2021 08:33:10 81.13, 91.88 71.19 3.16 13
6 08/21/2021 09:22:49 -81.15,-100.28 108.76 08/21/2021 09:23:49 -81.15,-100.18 108.73 1.76 60
7 08/24/2021 04:07:39 81.12, 158.10 72.13 08/24/2021 04:07:33 81.12, 158.16 72.14 1.17 6
8 08/24/2021 04:57:05 -81.14, -33.86 107.80 08/24/2021 04:58:12 -81.14, -33.87 107.77 0.30 67
9 08/26/2021 22:52:29 -81.09, 56.50 106.95 08/26/2021 22:51:16 -81.09, 56.41 106.99 1.43 73
10 08/26/2021 23:41:54 81.11,-135.53 73.11 08/26/2021 23:41:55 81.12,-135.57 73.11 0.76 1



Historial Predications of SNOs between LANDSAT-8 and METOP-B
